Year,Month,Day,Hour,Minute,Value (Times are PST for temperature in C)
2015,07,18,00,00,18.30
2015,07,18,00,01,18.30
2015,07,18,00,02,18.30
2015,07,18,00,03,18.30
2015,07,18,00,04,18.30
2015,07,18,00,05,18.30
2015,07,18,00,06,18.20
2015,07,18,00,07,18.20
2015,07,18,00,08,18.20
2015,07,18,00,09,18.20
2015,07,18,00,10,18.20
2015,07,18,00,11,18.20
2015,07,18,00,12,18.20
2015,07,18,00,13,18.20
2015,07,18,00,14,18.20
2015,07,18,00,15,18.20
2015,07,18,00,16,18.20
2015,07,18,00,17,18.20
2015,07,18,00,18,18.10
2015,07,18,00,19,18.10
2015,07,18,00,20,18.10
2015,07,18,00,21,18.10
2015,07,18,00,22,18.10
2015,07,18,00,23,18.10
2015,07,18,00,24,18.10
2015,07,18,00,25,18.10
2015,07,18,00,26,18.10
2015,07,18,00,27,18.10
2015,07,18,00,28,18.10
2015,07,18,00,29,17.90
2015,07,18,00,30,17.90
2015,07,18,00,31,17.90
2015,07,18,00,32,17.90
2015,07,18,00,33,17.90
2015,07,18,00,34,17.90
2015,07,18,00,35,17.90
2015,07,18,00,36,17.90
2015,07,18,00,37,17.90
2015,07,18,00,38,17.90
2015,07,18,00,39,17.90
2015,07,18,00,40,17.90
2015,07,18,00,41,17.90
2015,07,18,00,42,17.90
2015,07,18,00,43,17.90
2015,07,18,00,44,17.90
2015,07,18,00,45,17.90
2015,07,18,00,46,17.90
2015,07,18,00,47,17.90
2015,07,18,00,48,17.90
2015,07,18,00,49,17.90
2015,07,18,00,50,17.90
2015,07,18,00,51,17.90
2015,07,18,00,52,17.90
2015,07,18,00,53,17.90
2015,07,18,00,54,17.90
2015,07,18,00,55,17.90
2015,07,18,00,56,17.90
2015,07,18,00,57,17.90
2015,07,18,00,58,17.90
2015,07,18,00,59,17.90
2015,07,18,01,00,17.90
2015,07,18,01,01,17.90
2015,07,18,01,02,17.90
2015,07,18,01,03,17.90
2015,07,18,01,04,17.90
2015,07,18,01,05,17.90
2015,07,18,01,06,17.90
2015,07,18,01,07,17.90
2015,07,18,01,08,17.80
2015,07,18,01,09,17.80
2015,07,18,01,10,17.80
2015,07,18,01,11,17.80
2015,07,18,01,12,17.70
2015,07,18,01,13,17.70
2015,07,18,01,14,17.70
2015,07,18,01,15,17.60
2015,07,18,01,16,17.60
2015,07,18,01,17,17.60
2015,07,18,01,18,17.60
2015,07,18,01,19,17.60
2015,07,18,01,20,17.60
2015,07,18,01,21,17.60
2015,07,18,01,22,17.50
2015,07,18,01,23,17.50
2015,07,18,01,24,17.50
2015,07,18,01,25,17.50
2015,07,18,01,26,17.50
2015,07,18,01,27,17.50
2015,07,18,01,28,17.50
2015,07,18,01,29,17.40
2015,07,18,01,30,17.40
2015,07,18,01,31,17.40
2015,07,18,01,32,17.40
2015,07,18,01,33,17.30
2015,07,18,01,34,17.30
2015,07,18,01,35,17.30
2015,07,18,01,36,17.30
2015,07,18,01,37,17.30
2015,07,18,01,38,17.30
2015,07,18,01,39,17.30
2015,07,18,01,40,17.30
2015,07,18,01,41,17.30
2015,07,18,01,42,17.20
2015,07,18,01,43,17.10
2015,07,18,01,44,17.10
2015,07,18,01,45,17.00
2015,07,18,01,46,17.00
2015,07,18,01,47,16.90
2015,07,18,01,48,16.90
2015,07,18,01,49,16.80
2015,07,18,01,50,16.80
2015,07,18,01,51,16.80
2015,07,18,01,52,16.70
2015,07,18,01,53,16.70
2015,07,18,01,54,16.70
2015,07,18,01,55,16.70
2015,07,18,01,56,16.70
2015,07,18,01,57,16.70
2015,07,18,01,58,16.70
2015,07,18,01,59,16.70
2015,07,18,02,00,16.70
2015,07,18,02,01,16.70
2015,07,18,02,02,16.70
2015,07,18,02,03,16.70
2015,07,18,02,04,16.70
2015,07,18,02,05,16.70
2015,07,18,02,06,16.70
2015,07,18,02,07,16.70
2015,07,18,02,08,16.70
2015,07,18,02,09,16.70
2015,07,18,02,10,16.70
2015,07,18,02,11,16.70
2015,07,18,02,12,16.70
2015,07,18,02,13,16.80
2015,07,18,02,14,16.80
2015,07,18,02,15,16.80
2015,07,18,02,16,16.80
2015,07,18,02,17,16.70
2015,07,18,02,18,16.70
2015,07,18,02,19,16.70
2015,07,18,02,20,16.70
2015,07,18,02,21,16.70
2015,07,18,02,22,16.70
2015,07,18,02,23,16.70
2015,07,18,02,24,16.70
2015,07,18,02,25,16.70
2015,07,18,02,26,16.70
2015,07,18,02,27,16.70
2015,07,18,02,28,16.70
2015,07,18,02,29,16.70
2015,07,18,02,30,16.70
2015,07,18,02,31,16.70
2015,07,18,02,32,16.60
2015,07,18,02,33,16.60
2015,07,18,02,34,16.60
2015,07,18,02,35,16.60
2015,07,18,02,36,16.60
2015,07,18,02,37,16.60
2015,07,18,02,38,16.60
2015,07,18,02,39,16.60
2015,07,18,02,40,16.60
2015,07,18,02,41,16.60
2015,07,18,02,42,16.60
2015,07,18,02,43,16.60
2015,07,18,02,44,16.60
2015,07,18,02,45,16.50
2015,07,18,02,46,16.40
2015,07,18,02,47,16.40
2015,07,18,02,48,16.40
2015,07,18,02,49,16.40
2015,07,18,02,50,16.40
2015,07,18,02,51,16.40
2015,07,18,02,52,16.40
2015,07,18,02,53,16.40
2015,07,18,02,54,16.40
2015,07,18,02,55,16.30
2015,07,18,02,56,16.30
2015,07,18,02,57,16.30
2015,07,18,02,58,16.30
2015,07,18,02,59,16.30
2015,07,18,03,00,16.20
2015,07,18,03,01,16.20
2015,07,18,03,02,16.20
2015,07,18,03,03,16.10
2015,07,18,03,04,16.10
2015,07,18,03,05,16.10
2015,07,18,03,06,16.10
2015,07,18,03,07,16.10
2015,07,18,03,08,16.10
2015,07,18,03,09,16.00
2015,07,18,03,10,15.90
2015,07,18,03,11,15.90
2015,07,18,03,12,15.90
2015,07,18,03,13,15.90
2015,07,18,03,14,15.90
2015,07,18,03,15,15.90
2015,07,18,03,16,15.80
2015,07,18,03,17,15.80
2015,07,18,03,18,15.80
2015,07,18,03,19,15.80
2015,07,18,03,20,15.80
2015,07,18,03,21,15.80
2015,07,18,03,22,15.80
2015,07,18,03,23,15.80
2015,07,18,03,24,15.80
2015,07,18,03,25,15.80
2015,07,18,03,26,15.80
2015,07,18,03,27,15.80
2015,07,18,03,28,15.80
2015,07,18,03,29,15.80
2015,07,18,03,30,15.80
2015,07,18,03,31,15.80
2015,07,18,03,32,15.80
2015,07,18,03,33,15.80
2015,07,18,03,34,15.80
2015,07,18,03,35,15.80
2015,07,18,03,36,15.80
2015,07,18,03,37,15.80
2015,07,18,03,38,15.70
2015,07,18,03,39,15.70
2015,07,18,03,40,15.70
2015,07,18,03,41,15.70
2015,07,18,03,42,15.70
2015,07,18,03,43,15.60
2015,07,18,03,44,15.60
2015,07,18,03,45,15.60
2015,07,18,03,46,15.60
2015,07,18,03,47,15.60
2015,07,18,03,48,15.60
2015,07,18,03,49,15.60
2015,07,18,03,50,15.50
2015,07,18,03,51,15.50
2015,07,18,03,52,15.50
2015,07,18,03,53,15.50
2015,07,18,03,54,15.50
2015,07,18,03,55,15.50
2015,07,18,03,56,15.50
2015,07,18,03,57,15.50
2015,07,18,03,58,15.40
2015,07,18,03,59,15.40
2015,07,18,04,00,15.40
2015,07,18,04,01,15.40
2015,07,18,04,02,15.40
2015,07,18,04,03,15.40
2015,07,18,04,04,15.40
2015,07,18,04,05,15.40
2015,07,18,04,06,15.30
2015,07,18,04,07,15.30
2015,07,18,04,08,15.30
2015,07,18,04,09,15.30
2015,07,18,04,10,15.30
2015,07,18,04,11,15.30
2015,07,18,04,12,15.30
2015,07,18,04,13,15.30
2015,07,18,04,14,15.30
2015,07,18,04,15,15.30
2015,07,18,04,16,15.30
2015,07,18,04,17,15.40
2015,07,18,04,18,15.40
2015,07,18,04,19,15.40
2015,07,18,04,20,15.40
2015,07,18,04,21,15.40
2015,07,18,04,22,15.40
2015,07,18,04,23,15.40
2015,07,18,04,24,15.30
2015,07,18,04,25,15.30
2015,07,18,04,26,15.30
2015,07,18,04,27,15.30
2015,07,18,04,28,15.30
2015,07,18,04,29,15.30
2015,07,18,04,30,15.30
2015,07,18,04,31,15.40
2015,07,18,04,32,15.40
2015,07,18,04,33,15.40
2015,07,18,04,34,15.40
2015,07,18,04,35,15.30
2015,07,18,04,36,15.30
2015,07,18,04,37,15.30
2015,07,18,04,38,15.30
2015,07,18,04,39,15.30
2015,07,18,04,40,15.30
2015,07,18,04,41,15.30
2015,07,18,04,42,15.30
2015,07,18,04,43,15.30
2015,07,18,04,44,15.30
2015,07,18,04,45,15.30
2015,07,18,04,46,15.20
2015,07,18,04,47,15.20
2015,07,18,04,48,15.20
2015,07,18,04,49,15.20
2015,07,18,04,50,15.20
2015,07,18,04,51,15.20
2015,07,18,04,52,15.20
2015,07,18,04,53,15.10
2015,07,18,04,54,15.10
2015,07,18,04,55,15.10
2015,07,18,04,56,15.10
2015,07,18,04,57,15.10
2015,07,18,04,58,15.10
2015,07,18,04,59,15.10
2015,07,18,05,00,15.10
2015,07,18,05,01,15.10
2015,07,18,05,02,15.10
2015,07,18,05,03,15.00
2015,07,18,05,04,15.00
2015,07,18,05,05,15.00
2015,07,18,05,06,15.00
2015,07,18,05,07,15.00
2015,07,18,05,08,15.00
2015,07,18,05,09,15.00
2015,07,18,05,10,14.90
2015,07,18,05,11,14.90
2015,07,18,05,12,14.90
2015,07,18,05,13,14.90
2015,07,18,05,14,14.90
2015,07,18,05,15,14.90
2015,07,18,05,16,14.80
2015,07,18,05,17,14.80
2015,07,18,05,18,14.80
2015,07,18,05,19,14.80
2015,07,18,05,20,14.80
2015,07,18,05,21,14.80
2015,07,18,05,22,14.80
2015,07,18,05,23,14.80
2015,07,18,05,24,14.80
2015,07,18,05,25,14.70
2015,07,18,05,26,14.70
2015,07,18,05,27,14.70
2015,07,18,05,28,14.70
2015,07,18,05,29,14.70
2015,07,18,05,30,14.70
2015,07,18,05,31,14.60
2015,07,18,05,32,14.60
2015,07,18,05,33,14.60
2015,07,18,05,34,14.60
2015,07,18,05,35,14.60
2015,07,18,05,36,14.60
2015,07,18,05,37,14.60
2015,07,18,05,38,14.60
2015,07,18,05,39,14.60
2015,07,18,05,40,14.60
2015,07,18,05,41,14.50
2015,07,18,05,42,14.50
2015,07,18,05,43,14.50
2015,07,18,05,44,14.50
2015,07,18,05,45,14.50
2015,07,18,05,46,14.50
2015,07,18,05,47,14.50
2015,07,18,05,48,14.50
2015,07,18,05,49,14.50
2015,07,18,05,50,14.50
2015,07,18,05,51,14.50
2015,07,18,05,52,14.60
2015,07,18,05,53,14.60
2015,07,18,05,54,14.60
2015,07,18,05,55,14.70
2015,07,18,05,56,14.70
2015,07,18,05,57,14.80
2015,07,18,05,58,14.80
2015,07,18,05,59,14.80
2015,07,18,06,00,14.80
2015,07,18,06,01,14.80
2015,07,18,06,02,14.90
2015,07,18,06,03,14.90
2015,07,18,06,04,15.00
2015,07,18,06,05,15.00
2015,07,18,06,06,15.10
2015,07,18,06,07,15.10
2015,07,18,06,08,15.10
2015,07,18,06,09,15.20
2015,07,18,06,10,15.20
2015,07,18,06,11,15.30
2015,07,18,06,12,15.30
2015,07,18,06,13,15.40
2015,07,18,06,14,15.40
2015,07,18,06,15,15.50
2015,07,18,06,16,15.50
2015,07,18,06,17,15.60
2015,07,18,06,18,15.60
2015,07,18,06,19,15.70
2015,07,18,06,20,15.70
2015,07,18,06,21,15.70
2015,07,18,06,22,15.80
2015,07,18,06,23,15.80
2015,07,18,06,24,15.80
2015,07,18,06,25,15.90
2015,07,18,06,26,16.00
2015,07,18,06,27,16.10
2015,07,18,06,28,16.10
2015,07,18,06,29,16.20
2015,07,18,06,30,16.20
2015,07,18,06,31,16.30
2015,07,18,06,32,16.30
2015,07,18,06,33,16.30
2015,07,18,06,34,16.30
2015,07,18,06,35,16.30
2015,07,18,06,36,16.30
2015,07,18,06,37,16.30
2015,07,18,06,38,16.30
2015,07,18,06,39,16.30
2015,07,18,06,40,16.30
2015,07,18,06,41,16.30
2015,07,18,06,42,16.30
2015,07,18,06,43,16.30
2015,07,18,06,44,16.30
2015,07,18,06,45,16.30
2015,07,18,06,46,16.30
2015,07,18,06,47,16.40
2015,07,18,06,48,16.40
2015,07,18,06,49,16.40
2015,07,18,06,50,16.40
2015,07,18,06,51,16.40
2015,07,18,06,52,16.40
2015,07,18,06,53,16.40
2015,07,18,06,54,16.40
2015,07,18,06,55,16.40
2015,07,18,06,56,16.40
2015,07,18,06,57,16.40
2015,07,18,06,58,16.50
2015,07,18,06,59,16.60
2015,07,18,07,00,16.70
2015,07,18,07,01,16.70
2015,07,18,07,02,16.70
2015,07,18,07,03,16.80
2015,07,18,07,04,16.90
2015,07,18,07,05,17.00
2015,07,18,07,06,17.00
2015,07,18,07,07,17.10
2015,07,18,07,08,17.20
2015,07,18,07,09,17.30
2015,07,18,07,10,17.40
2015,07,18,07,11,17.50
2015,07,18,07,12,17.60
2015,07,18,07,13,17.70
2015,07,18,07,14,17.80
2015,07,18,07,15,17.80
2015,07,18,07,16,17.90
2015,07,18,07,17,17.90
2015,07,18,07,18,17.90
2015,07,18,07,19,17.90
2015,07,18,07,20,18.00
2015,07,18,07,21,18.10
2015,07,18,07,22,18.10
2015,07,18,07,23,18.20
2015,07,18,07,24,18.20
2015,07,18,07,25,18.40
2015,07,18,07,26,18.50
2015,07,18,07,27,18.60
2015,07,18,07,28,18.60
2015,07,18,07,29,18.70
2015,07,18,07,30,18.70
2015,07,18,07,31,18.70
2015,07,18,07,32,18.70
2015,07,18,07,33,18.70
2015,07,18,07,34,18.70
2015,07,18,07,35,18.70
2015,07,18,07,36,18.80
2015,07,18,07,37,18.90
2015,07,18,07,38,18.90
2015,07,18,07,39,19.00
2015,07,18,07,40,19.10
2015,07,18,07,41,19.30
2015,07,18,07,42,19.50
2015,07,18,07,43,19.60
2015,07,18,07,44,19.70
2015,07,18,07,45,19.80
2015,07,18,07,46,19.80
2015,07,18,07,47,19.90
2015,07,18,07,48,20.00
2015,07,18,07,49,20.10
2015,07,18,07,50,20.20
2015,07,18,07,51,20.30
2015,07,18,07,52,20.40
2015,07,18,07,53,20.40
2015,07,18,07,54,20.40
2015,07,18,07,55,20.40
2015,07,18,07,56,20.40
2015,07,18,07,57,20.30
2015,07,18,07,58,20.30
2015,07,18,07,59,20.30
2015,07,18,08,00,20.30
2015,07,18,08,01,20.40
2015,07,18,08,02,20.40
2015,07,18,08,03,20.40
2015,07,18,08,04,20.40
2015,07,18,08,05,20.50
2015,07,18,08,06,20.50
2015,07,18,08,07,20.60
2015,07,18,08,08,20.70
2015,07,18,08,09,20.80
2015,07,18,08,10,20.90
2015,07,18,08,11,21.00
2015,07,18,08,12,21.10
2015,07,18,08,13,21.30
2015,07,18,08,14,21.40
2015,07,18,08,15,21.50
2015,07,18,08,16,21.60
2015,07,18,08,17,21.70
2015,07,18,08,18,21.80
2015,07,18,08,19,21.90
2015,07,18,08,20,22.00
2015,07,18,08,21,22.00
2015,07,18,08,22,22.10
2015,07,18,08,23,22.10
2015,07,18,08,24,22.20
2015,07,18,08,25,22.20
2015,07,18,08,26,22.30
2015,07,18,08,27,22.30
2015,07,18,08,28,22.40
2015,07,18,08,29,22.40
2015,07,18,08,30,22.50
2015,07,18,08,31,22.50
2015,07,18,08,32,22.50
2015,07,18,08,33,22.50
2015,07,18,08,34,22.60
2015,07,18,08,35,22.60
2015,07,18,08,36,22.60
2015,07,18,08,37,22.70
2015,07,18,08,38,22.70
2015,07,18,08,39,22.80
2015,07,18,08,40,22.80
2015,07,18,08,41,22.80
2015,07,18,08,42,22.90
2015,07,18,08,43,22.90
2015,07,18,08,44,22.90
2015,07,18,08,45,22.90
2015,07,18,08,46,23.10
2015,07,18,08,47,23.10
2015,07,18,08,48,23.20
2015,07,18,08,49,23.20
2015,07,18,08,50,23.20
2015,07,18,08,51,23.20
2015,07,18,08,52,23.20
2015,07,18,08,53,23.20
2015,07,18,08,54,23.20
2015,07,18,08,55,23.20
2015,07,18,08,56,23.20
2015,07,18,08,57,23.20
2015,07,18,08,58,23.20
2015,07,18,08,59,23.10
2015,07,18,09,00,23.10
2015,07,18,09,01,23.10
2015,07,18,09,02,23.10
2015,07,18,09,03,23.10
2015,07,18,09,04,23.10
2015,07,18,09,05,23.10
2015,07,18,09,06,23.10
2015,07,18,09,07,23.10
2015,07,18,09,08,23.20
2015,07,18,09,09,23.20
2015,07,18,09,10,23.20
2015,07,18,09,11,23.30
2015,07,18,09,12,23.30
2015,07,18,09,13,23.30
2015,07,18,09,14,23.20
2015,07,18,09,15,23.20
2015,07,18,09,16,23.20
2015,07,18,09,17,23.20
2015,07,18,09,18,23.20
2015,07,18,09,19,23.20
2015,07,18,09,20,23.20
2015,07,18,09,21,23.20
2015,07,18,09,22,23.20
2015,07,18,09,23,23.30
2015,07,18,09,24,23.30
2015,07,18,09,25,23.30
2015,07,18,09,26,23.40
2015,07,18,09,27,23.50
2015,07,18,09,28,23.60
2015,07,18,09,29,23.60
2015,07,18,09,30,23.60
2015,07,18,09,31,23.60
2015,07,18,09,32,23.60
2015,07,18,09,33,23.70
2015,07,18,09,34,23.70
2015,07,18,09,35,23.80
2015,07,18,09,36,23.90
2015,07,18,09,37,24.00
2015,07,18,09,38,24.10
2015,07,18,09,39,24.10
2015,07,18,09,40,24.10
2015,07,18,09,41,24.10
2015,07,18,09,42,24.10
2015,07,18,09,43,24.10
2015,07,18,09,44,24.10
2015,07,18,09,45,24.10
2015,07,18,09,46,24.10
2015,07,18,09,47,24.10
2015,07,18,09,48,24.10
2015,07,18,09,49,24.10
2015,07,18,09,50,24.20
2015,07,18,09,51,24.20
2015,07,18,09,52,24.20
2015,07,18,09,53,24.20
2015,07,18,09,54,24.20
2015,07,18,09,55,24.20
2015,07,18,09,56,24.10
2015,07,18,09,57,24.10
2015,07,18,09,58,24.10
2015,07,18,09,59,24.10
2015,07,18,10,00,24.10
2015,07,18,10,01,24.20
2015,07,18,10,02,24.30
2015,07,18,10,03,24.40
2015,07,18,10,04,24.40
2015,07,18,10,05,24.50
2015,07,18,10,06,24.50
2015,07,18,10,07,24.60
2015,07,18,10,08,24.70
2015,07,18,10,09,24.70
2015,07,18,10,10,24.80
2015,07,18,10,11,24.80
2015,07,18,10,12,24.90
2015,07,18,10,13,24.90
2015,07,18,10,14,24.90
2015,07,18,10,15,24.90
2015,07,18,10,16,25.00
2015,07,18,10,17,25.00
2015,07,18,10,18,25.10
2015,07,18,10,19,25.10
2015,07,18,10,20,25.20
2015,07,18,10,21,25.30
2015,07,18,10,22,25.40
2015,07,18,10,23,25.40
2015,07,18,10,24,25.50
2015,07,18,10,25,25.60
2015,07,18,10,26,25.60
2015,07,18,10,27,25.50
2015,07,18,10,28,25.40
2015,07,18,10,29,25.30
2015,07,18,10,30,25.20
2015,07,18,10,31,25.20
2015,07,18,10,32,25.20
2015,07,18,10,33,25.20
2015,07,18,10,34,25.30
2015,07,18,10,35,25.30
2015,07,18,10,36,25.30
2015,07,18,10,37,25.20
2015,07,18,10,38,25.20
2015,07,18,10,39,25.20
2015,07,18,10,40,25.20
2015,07,18,10,41,25.10
2015,07,18,10,42,24.90
2015,07,18,10,43,24.90
2015,07,18,10,44,24.80
2015,07,18,10,45,24.80
2015,07,18,10,46,24.70
2015,07,18,10,47,24.70
2015,07,18,10,48,24.70
2015,07,18,10,49,24.70
2015,07,18,10,50,24.70
2015,07,18,10,51,24.70
2015,07,18,10,52,24.80
2015,07,18,10,53,24.80
2015,07,18,10,54,24.90
2015,07,18,10,55,24.90
2015,07,18,10,56,25.00
2015,07,18,10,57,25.10
2015,07,18,10,58,25.10
2015,07,18,10,59,25.20
2015,07,18,11,00,25.20
2015,07,18,11,01,25.30
2015,07,18,11,02,25.40
2015,07,18,11,03,25.40
2015,07,18,11,04,25.40
2015,07,18,11,05,25.40
2015,07,18,11,06,25.40
2015,07,18,11,07,25.40
2015,07,18,11,08,25.40
2015,07,18,11,09,25.40
2015,07,18,11,10,25.40
2015,07,18,11,11,25.30
2015,07,18,11,12,25.40
2015,07,18,11,13,25.40
2015,07,18,11,14,25.50
2015,07,18,11,15,25.50
2015,07,18,11,16,25.50
2015,07,18,11,17,25.50
2015,07,18,11,18,25.40
2015,07,18,11,19,25.40
2015,07,18,11,20,25.40
2015,07,18,11,21,25.30
2015,07,18,11,22,25.30
2015,07,18,11,23,25.40
2015,07,18,11,24,25.40
2015,07,18,11,25,25.40
2015,07,18,11,26,25.50
2015,07,18,11,27,25.50
2015,07,18,11,28,25.60
2015,07,18,11,29,25.70
2015,07,18,11,30,25.80
2015,07,18,11,31,25.80
2015,07,18,11,32,25.80
2015,07,18,11,33,25.70
2015,07,18,11,34,25.70
2015,07,18,11,35,25.70
2015,07,18,11,36,25.70
2015,07,18,11,37,25.60
2015,07,18,11,38,25.60
2015,07,18,11,39,25.50
2015,07,18,11,40,25.50
2015,07,18,11,41,25.50
2015,07,18,11,42,25.40
2015,07,18,11,43,25.40
2015,07,18,11,44,25.40
2015,07,18,11,45,25.30
2015,07,18,11,46,25.30
2015,07,18,11,47,25.30
2015,07,18,11,48,25.30
2015,07,18,11,49,25.30
2015,07,18,11,50,25.30
2015,07,18,11,51,25.30
2015,07,18,11,52,25.30
2015,07,18,11,53,25.30
2015,07,18,11,54,25.30
2015,07,18,11,55,25.30
2015,07,18,11,56,25.30
2015,07,18,11,57,25.30
2015,07,18,11,58,25.30
2015,07,18,11,59,25.30
2015,07,18,12,00,25.30
2015,07,18,12,01,25.30
2015,07,18,12,02,25.30
2015,07,18,12,03,25.30
2015,07,18,12,04,25.40
2015,07,18,12,05,25.40
2015,07,18,12,06,25.50
2015,07,18,12,07,25.60
2015,07,18,12,08,25.70
2015,07,18,12,09,25.80
2015,07,18,12,10,25.80
2015,07,18,12,11,25.80
2015,07,18,12,12,25.90
2015,07,18,12,13,25.90
2015,07,18,12,14,25.90
2015,07,18,12,15,25.90
2015,07,18,12,16,25.90
2015,07,18,12,17,25.90
2015,07,18,12,18,26.00
2015,07,18,12,19,26.00
2015,07,18,12,20,26.00
2015,07,18,12,21,26.00
2015,07,18,12,22,26.00
2015,07,18,12,23,26.00
2015,07,18,12,24,26.00
2015,07,18,12,25,26.00
2015,07,18,12,26,26.10
2015,07,18,12,27,26.10
2015,07,18,12,28,26.00
2015,07,18,12,29,26.00
2015,07,18,12,30,25.90
2015,07,18,12,31,25.90
2015,07,18,12,32,25.90
2015,07,18,12,33,26.00
2015,07,18,12,34,26.20
2015,07,18,12,35,26.30
2015,07,18,12,36,26.40
2015,07,18,12,37,26.40
2015,07,18,12,38,26.50
2015,07,18,12,39,26.50
2015,07,18,12,40,26.60
2015,07,18,12,41,26.60
2015,07,18,12,42,26.70
2015,07,18,12,43,26.80
2015,07,18,12,44,27.00
2015,07,18,12,45,27.10
2015,07,18,12,46,27.20
2015,07,18,12,47,27.20
2015,07,18,12,48,27.20
2015,07,18,12,49,27.30
2015,07,18,12,50,27.30
2015,07,18,12,51,27.30
2015,07,18,12,52,27.40
2015,07,18,12,53,27.40
2015,07,18,12,54,27.40
2015,07,18,12,55,27.40
2015,07,18,12,56,27.30
2015,07,18,12,57,27.20
2015,07,18,12,58,27.00
2015,07,18,12,59,26.80
2015,07,18,13,00,26.50
2015,07,18,13,01,26.10
2015,07,18,13,02,25.80
2015,07,18,13,03,25.60
2015,07,18,13,04,25.50
2015,07,18,13,05,25.40
2015,07,18,13,06,25.30
2015,07,18,13,07,25.30
2015,07,18,13,08,25.20
2015,07,18,13,09,25.20
2015,07,18,13,10,25.10
2015,07,18,13,11,25.10
2015,07,18,13,12,25.20
2015,07,18,13,13,25.20
2015,07,18,13,14,25.20
2015,07,18,13,15,25.20
2015,07,18,13,16,25.30
2015,07,18,13,17,25.30
2015,07,18,13,18,25.30
2015,07,18,13,19,25.40
2015,07,18,13,20,25.50
2015,07,18,13,21,25.40
2015,07,18,13,22,25.50
2015,07,18,13,23,25.50
2015,07,18,13,24,25.50
2015,07,18,13,25,25.50
2015,07,18,13,26,25.50
2015,07,18,13,27,25.40
2015,07,18,13,28,25.40
2015,07,18,13,29,25.40
2015,07,18,13,30,25.50
2015,07,18,13,31,25.40
2015,07,18,13,32,25.40
2015,07,18,13,33,25.40
2015,07,18,13,34,25.30
2015,07,18,13,35,25.30
2015,07,18,13,36,25.30
2015,07,18,13,37,25.20
2015,07,18,13,38,25.10
2015,07,18,13,39,25.00
2015,07,18,13,40,24.90
2015,07,18,13,41,24.80
2015,07,18,13,42,24.70
2015,07,18,13,43,24.60
2015,07,18,13,44,24.60
2015,07,18,13,45,24.60
2015,07,18,13,46,24.60
2015,07,18,13,47,24.70
2015,07,18,13,48,24.90
2015,07,18,13,49,24.90
2015,07,18,13,50,24.70
2015,07,18,13,51,24.60
2015,07,18,13,52,24.70
2015,07,18,13,53,24.80
2015,07,18,13,54,24.90
2015,07,18,13,55,25.10
2015,07,18,13,56,25.20
2015,07,18,13,57,25.30
2015,07,18,13,58,25.30
2015,07,18,13,59,25.30
2015,07,18,14,00,25.30
2015,07,18,14,01,25.20
2015,07,18,14,02,25.20
2015,07,18,14,03,25.30
2015,07,18,14,04,25.40
2015,07,18,14,05,25.40
2015,07,18,14,06,25.40
2015,07,18,14,07,25.30
2015,07,18,14,08,25.20
2015,07,18,14,09,25.20
2015,07,18,14,10,25.10
2015,07,18,14,11,25.00
2015,07,18,14,12,24.90
2015,07,18,14,13,24.90
2015,07,18,14,14,25.00
2015,07,18,14,15,25.20
2015,07,18,14,16,25.20
2015,07,18,14,17,25.30
2015,07,18,14,18,25.30
2015,07,18,14,19,25.30
2015,07,18,14,20,25.30
2015,07,18,14,21,25.30
2015,07,18,14,22,25.30
2015,07,18,14,23,25.30
2015,07,18,14,24,25.30
2015,07,18,14,25,25.30
2015,07,18,14,26,25.30
2015,07,18,14,27,25.40
2015,07,18,14,28,25.40
2015,07,18,14,29,25.30
2015,07,18,14,30,25.30
2015,07,18,14,31,25.30
2015,07,18,14,32,25.30
2015,07,18,14,33,25.20
2015,07,18,14,34,25.30
2015,07,18,14,35,25.50
2015,07,18,14,36,25.60
2015,07,18,14,37,25.70
2015,07,18,14,38,25.80
2015,07,18,14,39,25.80
2015,07,18,14,40,25.80
2015,07,18,14,41,25.90
2015,07,18,14,42,26.00
2015,07,18,14,43,26.10
2015,07,18,14,44,26.20
2015,07,18,14,45,26.30
2015,07,18,14,46,26.30
2015,07,18,14,47,26.30
2015,07,18,14,48,26.30
2015,07,18,14,49,26.40
2015,07,18,14,50,26.40
2015,07,18,14,51,26.40
2015,07,18,14,52,26.40
2015,07,18,14,53,26.40
2015,07,18,14,54,26.40
2015,07,18,14,55,26.40
2015,07,18,14,56,26.30
2015,07,18,14,57,26.40
2015,07,18,14,58,26.50
2015,07,18,14,59,26.60
2015,07,18,15,00,26.60
2015,07,18,15,01,26.60
2015,07,18,15,02,26.60
2015,07,18,15,03,26.60
2015,07,18,15,04,26.60
2015,07,18,15,05,26.60
2015,07,18,15,06,26.60
2015,07,18,15,07,26.60
2015,07,18,15,08,26.60
2015,07,18,15,09,26.60
2015,07,18,15,10,26.60
2015,07,18,15,11,26.60
2015,07,18,15,12,26.80
2015,07,18,15,13,26.80
2015,07,18,15,14,26.80
2015,07,18,15,15,26.90
2015,07,18,15,16,27.00
2015,07,18,15,17,27.10
2015,07,18,15,18,27.10
2015,07,18,15,19,27.20
2015,07,18,15,20,27.30
2015,07,18,15,21,27.30
2015,07,18,15,22,27.40
2015,07,18,15,23,27.60
2015,07,18,15,24,27.80
2015,07,18,15,25,28.00
2015,07,18,15,26,28.10
2015,07,18,15,27,28.20
2015,07,18,15,28,28.30
2015,07,18,15,29,28.60
2015,07,18,15,30,28.70
2015,07,18,15,31,28.90
2015,07,18,15,32,28.90
2015,07,18,15,33,29.10
2015,07,18,15,34,29.30
2015,07,18,15,35,29.50
2015,07,18,15,36,29.60
2015,07,18,15,37,29.70
2015,07,18,15,38,29.80
2015,07,18,15,39,29.90
2015,07,18,15,40,29.90
2015,07,18,15,41,30.00
2015,07,18,15,42,30.10
2015,07,18,15,43,30.10
2015,07,18,15,44,30.10
2015,07,18,15,45,30.10
2015,07,18,15,46,30.20
2015,07,18,15,47,30.20
2015,07,18,15,48,30.20
2015,07,18,15,49,30.30
2015,07,18,15,50,30.40
2015,07,18,15,51,30.40
2015,07,18,15,52,30.40
2015,07,18,15,53,30.40
2015,07,18,15,54,30.40
2015,07,18,15,55,30.40
2015,07,18,15,56,30.60
2015,07,18,15,57,30.60
2015,07,18,15,58,30.60
2015,07,18,15,59,30.70
2015,07,18,16,00,30.80
2015,07,18,16,01,30.80
2015,07,18,16,02,30.80
2015,07,18,16,03,30.90
2015,07,18,16,04,30.90
2015,07,18,16,05,31.00
2015,07,18,16,06,31.10
2015,07,18,16,07,31.10
2015,07,18,16,08,31.00
2015,07,18,16,09,30.80
2015,07,18,16,10,30.70
2015,07,18,16,11,30.50
2015,07,18,16,12,30.20
2015,07,18,16,13,30.00
2015,07,18,16,14,29.50
2015,07,18,16,15,29.10
2015,07,18,16,16,28.80
2015,07,18,16,17,28.50
2015,07,18,16,18,28.20
2015,07,18,16,19,28.00
2015,07,18,16,20,27.80
2015,07,18,16,21,27.70
2015,07,18,16,22,27.60
2015,07,18,16,23,27.50
2015,07,18,16,24,27.40
2015,07,18,16,25,27.30
2015,07,18,16,26,27.30
2015,07,18,16,27,27.10
2015,07,18,16,28,27.00
2015,07,18,16,29,26.80
2015,07,18,16,30,26.70
2015,07,18,16,31,26.70
2015,07,18,16,32,26.70
2015,07,18,16,33,26.80
2015,07,18,16,34,26.80
2015,07,18,16,35,26.80
2015,07,18,16,36,26.70
2015,07,18,16,37,26.60
2015,07,18,16,38,26.50
2015,07,18,16,39,26.40
2015,07,18,16,40,26.40
2015,07,18,16,41,26.40
2015,07,18,16,42,26.40
2015,07,18,16,43,26.40
2015,07,18,16,44,26.40
2015,07,18,16,45,26.40
2015,07,18,16,46,26.50
2015,07,18,16,47,26.60
2015,07,18,16,48,26.60
2015,07,18,16,49,26.60
2015,07,18,16,50,26.60
2015,07,18,16,51,26.60
2015,07,18,16,52,26.60
2015,07,18,16,53,26.50
2015,07,18,16,54,26.30
2015,07,18,16,55,26.30
2015,07,18,16,56,26.40
2015,07,18,16,57,26.40
2015,07,18,16,58,26.40
2015,07,18,16,59,26.40
2015,07,18,17,00,26.40
2015,07,18,17,01,26.30
2015,07,18,17,02,26.30
2015,07,18,17,03,26.30
2015,07,18,17,04,26.40
2015,07,18,17,05,26.40
2015,07,18,17,06,26.40
2015,07,18,17,07,26.30
2015,07,18,17,08,26.40
2015,07,18,17,09,26.40
2015,07,18,17,10,26.40
2015,07,18,17,11,26.50
2015,07,18,17,12,26.60
2015,07,18,17,13,26.60
2015,07,18,17,14,26.60
2015,07,18,17,15,26.60
2015,07,18,17,16,26.60
2015,07,18,17,17,26.60
2015,07,18,17,18,26.60
2015,07,18,17,19,26.60